Time,TemperatureF,DewpointF,PressureIn,WindDirection,WindDirectionDegrees,WindSpeedMPH,WindSpeedGustMPH,Humidity,HourlyPrecipIn,Conditions,Clouds,dailyrainin,SoftwareType,DateUTC
2013-10-02 00:14:00,54.0,52.0,30.02,SSE,163,0.0,0.0,92,0.00,,,0.00,,2013-10-02 04:14:00,
2013-10-02 00:24:00,53.0,51.0,30.02,SSE,163,0.0,0.0,93,0.00,,,0.00,,2013-10-02 04:24:00,
2013-10-02 00:44:00,53.0,51.0,30.02,SSE,163,0.0,0.0,94,0.00,,,0.00,,2013-10-02 04:44:00,
2013-10-02 00:54:00,53.0,51.0,30.02,SSE,163,0.0,0.0,94,0.00,,,0.00,,2013-10-02 04:54:00,
2013-10-02 01:13:00,52.0,50.0,30.02,SSE,163,0.0,0.0,94,0.00,,,0.00,,2013-10-02 05:13:00,
2013-10-02 01:23:00,52.0,51.0,30.02,SSE,163,0.0,0.0,95,0.00,,,0.00,,2013-10-02 05:23:00,
2013-10-02 01:53:00,52.0,51.0,30.02,ESE,108,0.0,0.0,96,0.00,,,0.00,,2013-10-02 05:53:00,
2013-10-02 02:12:00,52.0,51.0,30.02,ENE,69,0.0,0.0,96,0.00,,,0.00,,2013-10-02 06:12:00,
2013-10-02 02:22:00,53.0,52.0,30.02,ENE,69,0.0,0.0,96,0.00,,,0.00,,2013-10-02 06:22:00,
2013-10-02 02:42:00,52.0,51.0,30.02,East,80,0.0,0.0,96,0.00,,,0.00,,2013-10-02 06:42:00,
2013-10-02 02:52:00,52.0,51.0,30.03,ENE,75,0.0,0.0,96,0.00,,,0.00,,2013-10-02 06:52:00,
2013-10-02 03:12:00,52.0,51.0,30.02,East,86,0.0,0.0,96,0.00,,,0.00,,2013-10-02 07:12:00,
2013-10-02 03:22:00,53.0,52.0,30.02,East,86,0.0,0.0,96,0.00,,,0.00,,2013-10-02 07:22:00,
2013-10-02 03:42:00,52.0,51.0,30.02,East,86,0.0,0.0,96,0.00,,,0.00,,2013-10-02 07:42:00,
2013-10-02 03:52:00,53.0,52.0,30.02,East,101,0.0,0.0,97,0.00,,,0.00,,2013-10-02 07:52:00,
2013-10-02 04:11:00,54.0,53.0,30.02,ESE,102,0.0,0.0,97,0.00,,,0.00,,2013-10-02 08:11:00,
2013-10-02 04:22:00,54.0,53.0,30.02,SSW,200,0.0,0.0,97,0.00,,,0.00,,2013-10-02 08:22:00,
2013-10-02 04:52:00,55.0,54.0,30.02,East,81,0.0,0.0,97,0.00,,,0.00,,2013-10-02 08:52:00,
2013-10-02 05:11:00,55.0,54.0,30.02,East,81,0.0,0.0,96,0.00,,,0.00,,2013-10-02 09:11:00,
2013-10-02 05:21:00,55.0,54.0,30.02,East,81,0.0,0.0,96,0.00,,,0.00,,2013-10-02 09:21:00,
2013-10-02 05:54:00,56.0,55.0,30.03,East,80,0.0,0.0,97,0.00,,,0.00,,2013-10-02 09:54:00,
2013-10-02 06:12:00,56.0,55.0,30.03,East,81,0.0,0.0,96,0.00,,,0.00,,2013-10-02 10:12:00,
2013-10-02 06:23:00,56.0,55.0,30.03,SW,231,0.0,0.0,97,0.00,,,0.00,,2013-10-02 10:23:00,
2013-10-02 06:53:00,56.0,55.0,30.03,SE,132,2.0,3.0,96,0.00,,,0.00,,2013-10-02 10:53:00,
2013-10-02 07:22:00,56.0,55.0,30.04,SW,217,0.0,0.0,96,0.00,,,0.00,,2013-10-02 11:22:00,
2013-10-02 07:52:00,55.0,54.0,30.05,SW,217,0.0,0.0,96,0.00,,,0.00,,2013-10-02 11:52:00,
2013-10-02 08:12:00,53.0,52.0,30.06,East,80,0.0,0.0,96,0.00,,,0.00,,2013-10-02 12:12:00,
2013-10-02 08:22:00,54.0,53.0,30.06,ESE,115,0.0,0.0,97,0.00,,,0.00,,2013-10-02 12:22:00,
2013-10-02 08:52:00,55.0,54.0,30.07,NE,46,0.0,0.0,96,0.00,,,0.00,,2013-10-02 12:52:00,
2013-10-02 09:11:00,56.0,55.0,30.08,ENE,66,0.0,0.0,96,0.00,,,0.00,,2013-10-02 13:11:00,
2013-10-02 09:22:00,57.0,56.0,30.07,NE,53,0.0,0.0,97,0.00,,,0.00,,2013-10-02 13:22:00,
2013-10-02 09:52:00,60.0,59.0,30.07,NNE,29,0.0,0.0,96,0.00,,,0.00,,2013-10-02 13:52:00,
2013-10-02 10:11:00,62.0,60.0,30.07,West,264,2.0,4.0,94,0.00,,,0.00,,2013-10-02 14:11:00,
2013-10-02 10:21:00,63.0,60.0,30.08,SW,221,2.0,5.0,91,0.00,,,0.00,,2013-10-02 14:21:00,
2013-10-02 10:42:00,64.0,60.0,30.08,West,281,4.0,8.0,87,0.00,,,0.00,,2013-10-02 14:42:00,
2013-10-02 10:52:00,65.0,61.0,30.08,West,259,2.0,7.0,86,0.00,,,0.00,,2013-10-02 14:52:00,
2013-10-02 11:11:00,66.0,61.0,30.08,WSW,252,3.0,10.0,84,0.00,,,0.00,,2013-10-02 15:11:00,
2013-10-02 11:22:00,66.0,61.0,30.09,SW,226,3.0,10.0,84,0.00,,,0.00,,2013-10-02 15:22:00,
2013-10-02 11:43:00,66.0,61.0,30.09,West,278,5.0,11.0,85,0.00,,,0.00,,2013-10-02 15:43:00,
2013-10-02 11:54:00,67.0,61.0,30.08,West,273,8.0,11.0,82,0.00,,,0.00,,2013-10-02 15:54:00,
2013-10-02 12:12:00,68.0,62.0,30.08,West,267,6.0,11.0,81,0.00,,,0.00,,2013-10-02 16:12:00,
2013-10-02 12:23:00,70.0,63.0,30.08,WSW,238,5.0,10.0,78,0.00,,,0.00,,2013-10-02 16:23:00,
2013-10-02 12:53:00,70.0,62.0,30.07,West,276,9.0,12.0,76,0.00,,,0.00,,2013-10-02 16:53:00,
2013-10-02 13:12:00,70.0,62.0,30.06,West,259,6.0,14.0,76,0.00,,,0.00,,2013-10-02 17:12:00,
2013-10-02 13:23:00,72.0,63.0,30.05,SW,215,3.0,11.0,74,0.00,,,0.00,,2013-10-02 17:23:00,
2013-10-02 13:42:00,73.0,64.0,30.06,South,184,2.0,7.0,73,0.00,,,0.00,,2013-10-02 17:42:00,
2013-10-02 13:52:00,73.0,63.0,30.05,WSW,256,6.0,12.0,70,0.00,,,0.00,,2013-10-02 17:52:00,
2013-10-02 14:12:00,74.0,63.0,30.05,SW,219,3.0,11.0,69,0.00,,,0.00,,2013-10-02 18:12:00,
2013-10-02 14:22:00,74.0,64.0,30.05,WSW,239,4.0,9.0,70,0.00,,,0.00,,2013-10-02 18:22:00,
2013-10-02 14:42:00,73.0,63.0,30.05,West,271,5.0,10.0,71,0.00,,,0.00,,2013-10-02 18:42:00,
2013-10-02 14:52:00,73.0,63.0,30.04,WSW,245,5.0,11.0,72,0.00,,,0.00,,2013-10-02 18:52:00,
2013-10-02 15:12:00,74.0,64.0,30.04,SSW,200,2.0,12.0,70,0.00,,,0.00,,2013-10-02 19:12:00,
2013-10-02 15:22:00,74.0,64.0,30.04,WSW,238,6.0,12.0,70,0.00,,,0.00,,2013-10-02 19:22:00,
2013-10-02 15:42:00,75.0,64.0,30.03,West,274,5.0,10.0,68,0.00,,,0.00,,2013-10-02 19:42:00,
2013-10-02 15:52:00,76.0,64.0,30.03,ESE,117,4.0,10.0,66,0.00,,,0.00,,2013-10-02 19:52:00,
2013-10-02 16:11:00,76.0,63.0,30.03,WNW,285,6.0,14.0,65,0.00,,,0.00,,2013-10-02 20:11:00,
2013-10-02 16:22:00,77.0,65.0,30.02,SSW,203,5.0,12.0,66,0.00,,,0.00,,2013-10-02 20:22:00,
2013-10-02 16:52:00,75.0,63.0,30.02,South,176,5.0,15.0,66,0.00,,,0.00,,2013-10-02 20:52:00,
2013-10-02 17:11:00,75.0,63.0,30.02,WSW,256,3.0,6.0,67,0.00,,,0.00,,2013-10-02 21:11:00,
2013-10-02 17:22:00,77.0,64.0,30.02,WSW,245,2.0,11.0,64,0.00,,,0.00,,2013-10-02 21:22:00,
2013-10-02 17:44:00,76.0,63.0,30.02,WNW,283,2.0,6.0,65,0.00,,,0.00,,2013-10-02 21:44:00,
2013-10-02 17:55:00,77.0,63.0,30.02,SW,236,3.0,5.0,63,0.00,,,0.00,,2013-10-02 21:55:00,
2013-10-02 18:13:00,77.0,64.0,30.02,WSW,246,2.0,8.0,64,0.00,,,0.00,,2013-10-02 22:13:00,
2013-10-02 18:24:00,77.0,64.0,30.03,WSW,242,2.0,4.0,65,0.00,,,0.00,,2013-10-02 22:24:00,
2013-10-02 18:44:00,76.0,64.0,30.03,South,181,0.0,3.0,66,0.00,,,0.00,,2013-10-02 22:44:00,
2013-10-02 18:54:00,75.0,64.0,30.03,WSW,242,0.0,1.0,69,0.00,,,0.00,,2013-10-02 22:54:00,
2013-10-02 19:12:00,73.0,62.0,30.04,West,278,3.0,4.0,68,0.00,,,0.00,,2013-10-02 23:12:00,
2013-10-02 19:22:00,72.0,60.0,30.04,WNW,302,1.0,7.0,67,0.00,,,0.00,,2013-10-02 23:22:00,
2013-10-02 19:52:00,71.0,58.0,30.05,WNW,288,4.0,7.0,63,0.00,,,0.00,,2013-10-02 23:52:00,
2013-10-02 20:12:00,71.0,58.0,30.06,West,259,2.0,6.0,64,0.00,,,0.00,,2013-10-03 00:12:00,
2013-10-02 20:22:00,70.0,57.0,30.06,West,281,2.0,5.0,64,0.00,,,0.00,,2013-10-03 00:22:00,
2013-10-02 20:42:00,69.0,58.0,30.06,West,273,1.0,2.0,68,0.00,,,0.00,,2013-10-03 00:42:00,
2013-10-02 20:52:00,68.0,57.0,30.06,WNW,289,1.0,3.0,68,0.00,,,0.00,,2013-10-03 00:52:00,
2013-10-02 21:11:00,66.0,57.0,30.06,West,271,0.0,1.0,74,0.00,,,0.00,,2013-10-03 01:11:00,
2013-10-02 21:23:00,65.0,57.0,30.07,West,271,0.0,0.0,76,0.00,,,0.00,,2013-10-03 01:23:00,
2013-10-02 21:42:00,64.0,57.0,30.07,West,271,0.0,0.0,78,0.00,,,0.00,,2013-10-03 01:42:00,
2013-10-02 21:52:00,63.0,57.0,30.07,WNW,283,0.0,1.0,80,0.00,,,0.00,,2013-10-03 01:52:00,
2013-10-02 22:11:00,65.0,58.0,30.07,WNW,297,0.0,0.0,77,0.00,,,0.00,,2013-10-03 02:11:00,
2013-10-02 22:22:00,64.0,57.0,30.07,SW,234,0.0,0.0,77,0.00,,,0.00,,2013-10-03 02:22:00,
2013-10-02 23:11:00,62.0,56.0,30.09,WNW,288,0.0,2.0,81,0.00,,,0.00,,2013-10-03 03:11:00,
2013-10-02 23:22:00,61.0,56.0,30.09,North,3,0.0,1.0,84,0.00,,,0.00,,2013-10-03 03:22:00,
2013-10-02 23:44:00,60.0,56.0,30.09,ENE,60,0.0,0.0,88,0.00,,,0.00,,2013-10-03 03:44:00,
2013-10-02 23:54:00,58.0,55.0,30.10,ENE,69,0.0,0.0,90,0.00,,,0.00,,2013-10-03 03:54:00,